Date String (YYYY-MM-DD hh:mm:ss) UTC,Instrument flags,Ambient pressure (hPa),Sample flow (lpm),Bypass flow (lpm),Sample temperature (°C),Ambient temperature (°C),ASC tube jacket temperature (°C),LED temperature (°C),Box temperature (°C),Sample RH (%),Span deviation,Mass concentration (μg/m³),Mass concentration (μg/m³),Mass concentration (μg/m³)
DateTimeUTC,F1_M11,P_M11,Q1_M11,Q2_M11,T1_M11,T2_M11,T3_M11,T4_M11,T5_M11,U1_M11,ZSPAN_M11,X2_M11,X0_M11,X1_M11
2022-07-08 16:00:00,,0833.1,5.00,0.00,29.7,28.6,00.0,38.4,31.7,33.3,0000.0,0004.25,0011.41,0003.67
2022-07-08 16:01:00,,0833.1,5.00,0.00,29.7,28.2,00.0,38.4,31.6,33.3,0000.0,0004.34,0011.20,0003.70
2022-07-08 16:02:00,,0833.1,4.99,0.00,29.7,27.6,00.0,38.3,31.6,33.3,0000.0,0004.41,0011.37,0003.73
2022-07-08 16:03:00,,0833.1,5.02,0.00,29.7,27.3,00.0,38.3,31.5,33.4,0000.0,0004.47,0011.35,0003.77
2022-07-08 16:04:00,,0833.1,5.00,0.00,29.6,27.3,00.0,38.3,31.4,33.2,0000.0,0004.51,0012.02,0003.79
2022-07-08 16:05:00,,0833.1,5.00,0.00,29.5,27.4,00.0,38.3,31.3,33.3,0000.0,0004.55,0011.74,0003.84
2022-07-08 16:06:00,,0833.1,5.00,0.00,29.5,27.6,00.0,38.3,31.3,33.6,0000.0,0004.54,0010.95,0003.85
2022-07-08 16:07:00,,0833.0,5.00,0.00,29.5,27.7,00.0,38.3,31.4,33.9,0000.0,0004.56,0010.78,0003.85
2022-07-08 16:08:00,,0833.0,5.00,0.00,29.5,27.9,00.0,38.3,31.4,33.8,0000.0,0004.58,0010.83,0003.88
2022-07-08 16:09:00,,0833.0,5.01,0.00,29.5,28.0,00.0,38.3,31.4,34.0,0000.0,0004.62,0011.10,0003.89
2022-07-08 16:10:00,,0833.0,5.00,0.00,29.5,28.2,00.0,38.3,31.5,34.2,0000.0,0004.65,0010.84,0003.90
2022-07-08 16:11:00,,0833.0,5.00,0.00,29.6,28.3,00.0,38.3,31.5,34.0,0000.0,0004.65,0010.89,0003.91
2022-07-08 16:12:00,,0833.0,5.01,0.00,29.6,28.4,00.0,38.3,31.6,34.5,0000.0,0004.65,0011.52,0003.92
2022-07-08 16:13:00,,0833.1,5.00,0.00,29.6,28.4,00.0,38.3,31.6,34.3,0000.0,0004.64,0011.01,0003.94
2022-07-08 16:14:00,,0833.0,5.00,0.00,29.6,27.9,00.0,38.3,31.5,34.1,0000.0,0004.66,0011.42,0003.97
2022-07-08 16:15:00,,0833.1,5.00,0.00,29.6,27.4,00.0,38.2,31.4,34.2,0000.0,0004.69,0011.11,0003.99
2022-07-08 16:16:00,,0833.1,4.99,0.00,29.6,27.2,00.0,38.2,31.4,33.9,0000.0,0004.71,0011.18,0003.98
2022-07-08 16:17:00,,0833.0,4.99,0.00,29.5,27.2,00.0,38.2,31.3,34.4,0000.0,0004.74,0011.46,0004.00
2022-07-08 16:18:00,,0833.0,5.00,0.00,29.5,27.3,00.0,38.2,31.3,34.8,0000.0,0004.76,0011.51,0004.03
2022-07-08 16:19:00,,0833.1,5.01,0.00,29.5,27.5,00.0,38.2,31.3,35.1,0000.0,0004.77,0012.00,0004.04
2022-07-08 16:20:00,,0833.0,4.99,0.00,29.7,27.6,00.0,38.2,31.4,34.4,0000.0,0004.77,0012.42,0004.04
2022-07-08 16:21:00,,0833.1,5.00,0.00,29.8,27.8,00.0,38.2,31.5,34.2,0000.0,0004.80,0012.49,0004.03
2022-07-08 16:22:00,,0833.1,4.99,0.00,29.9,28.0,00.0,38.3,31.5,33.6,0000.0,0004.79,0012.28,0004.02
2022-07-08 16:23:00,,0833.0,5.00,0.00,30.0,28.1,00.0,38.3,31.5,33.4,0000.0,0004.80,0011.43,0004.02
2022-07-08 16:24:00,,0833.1,5.00,0.00,30.0,28.2,00.0,38.3,31.6,33.3,0000.0,0004.79,0011.70,0004.02
2022-07-08 16:25:00,,0833.0,5.00,0.00,30.0,28.3,00.0,38.4,31.6,33.2,0000.0,0004.78,0011.64,0004.00
2022-07-08 16:26:00,,0833.1,5.02,0.00,30.1,28.4,00.0,38.4,31.6,33.5,0000.0,0004.75,0011.60,0003.97
2022-07-08 16:27:00,,0833.1,4.99,0.00,30.1,28.2,00.0,38.4,31.6,33.8,0000.0,0004.73,0011.88,0003.95
2022-07-08 16:28:00,,0833.1,5.00,0.00,30.1,27.5,00.0,38.4,31.6,33.9,0000.0,0004.71,0012.40,0003.93
2022-07-08 16:29:00,,0833.1,4.99,0.00,30.0,27.2,00.0,38.4,31.5,33.6,0000.0,0004.67,0012.59,0003.91
2022-07-08 16:30:00,,0833.0,4.99,0.00,29.9,27.2,00.0,38.4,31.3,33.6,0000.0,0004.67,0012.09,0003.89
2022-07-08 16:31:00,,0833.0,5.00,0.00,29.9,27.3,00.0,38.4,31.3,33.8,0000.0,0004.66,0011.69,0003.89
2022-07-08 16:32:00,,0833.0,5.00,0.00,29.8,27.5,00.0,38.4,31.3,33.8,0000.0,0004.64,0011.40,0003.91
2022-07-08 16:33:00,,0833.1,5.00,0.00,29.8,27.6,00.0,38.4,31.4,33.9,0000.0,0004.64,0012.37,0003.92
2022-07-08 16:34:00,,0833.0,5.00,0.00,29.8,27.8,00.0,38.4,31.4,33.8,0000.0,0004.64,0012.68,0003.93
2022-07-08 16:35:00,,0833.0,5.00,0.00,29.8,28.0,00.0,38.4,31.5,33.8,0000.0,0004.62,0012.41,0003.93
2022-07-08 16:36:00,,0833.0,5.00,0.00,29.8,28.1,00.0,38.4,31.5,33.7,0000.0,0004.59,0013.29,0003.93
2022-07-08 16:37:00,,0833.0,5.00,0.00,29.8,28.2,00.0,38.5,31.5,33.4,0000.0,0004.59,0013.90,0003.93
2022-07-08 16:38:00,,0833.0,5.00,0.00,29.9,28.4,00.0,38.5,31.6,33.1,0000.0,0004.61,0013.95,0003.95
2022-07-08 16:39:00,,0833.0,5.00,0.00,29.9,28.4,00.0,38.5,31.7,33.2,0000.0,0004.60,0013.44,0003.96
2022-07-08 16:40:00,,0833.0,4.99,0.00,29.9,28.0,00.0,38.4,31.6,33.1,0000.0,0004.65,0013.23,0003.98
2022-07-08 16:41:00,,0833.0,5.00,0.00,29.9,27.4,00.0,38.4,31.5,33.5,0000.0,0004.66,0013.26,0003.98
2022-07-08 16:42:00,,0833.0,5.00,0.00,29.8,27.2,00.0,38.4,31.4,33.7,0000.0,0004.69,0013.80,0003.98
2022-07-08 16:43:00,,0833.0,5.00,0.00,29.8,27.2,00.0,38.4,31.3,33.8,0000.0,0004.75,0014.54,0004.00
2022-07-08 16:44:00,,0833.1,5.01,0.00,29.7,27.4,00.0,38.4,31.3,34.2,0000.0,0004.81,0015.36,0004.01
2022-07-08 16:45:00,,0833.0,4.99,0.00,29.7,27.5,00.0,38.4,31.3,34.0,0000.0,0004.82,0014.99,0004.01
2022-07-08 16:46:00,,0833.0,5.00,0.00,29.7,27.7,00.0,38.4,31.4,33.9,0000.0,0004.86,0015.12,0004.02
2022-07-08 16:47:00,,0833.1,5.00,0.00,29.7,27.8,00.0,38.4,31.4,34.0,0000.0,0004.88,0014.79,0004.04
2022-07-08 16:48:00,,0833.1,5.00,0.00,29.7,28.0,00.0,38.4,31.4,33.8,0000.0,0004.91,0013.63,0004.06
2022-07-08 16:49:00,,0833.0,5.00,0.00,29.7,28.1,00.0,38.4,31.5,33.9,0000.0,0004.94,0013.39,0004.09
2022-07-08 16:50:00,,0833.0,5.00,0.00,29.7,28.3,00.0,38.4,31.5,34.3,0000.0,0004.96,0013.54,0004.10
2022-07-08 16:51:00,,0832.9,5.00,0.00,29.7,28.4,00.0,38.4,31.5,34.2,0000.0,0004.97,0013.22,0004.11
2022-07-08 16:52:00,,0832.9,4.99,0.00,29.7,28.1,00.0,38.4,31.6,34.7,0000.0,0004.93,0013.46,0004.11
2022-07-08 16:53:00,,0832.9,5.00,0.00,29.7,27.5,00.0,38.3,31.5,34.4,0000.0,0004.91,0013.56,0004.12
2022-07-08 16:54:00,,0832.9,5.00,0.00,29.7,27.2,00.0,38.3,31.4,34.0,0000.0,0004.91,0014.28,0004.12
2022-07-08 16:55:00,,0832.8,5.00,0.00,29.6,27.2,00.0,38.3,31.3,33.9,0000.0,0004.89,0013.24,0004.13
2022-07-08 16:56:00,,0832.8,5.00,0.00,29.5,27.3,00.0,38.3,31.2,34.2,0000.0,0004.90,0013.22,0004.15
2022-07-08 16:57:00,,0832.9,5.01,0.00,29.5,27.4,00.0,38.3,31.3,34.4,0000.0,0004.92,0013.41,0004.15
2022-07-08 16:58:00,,0832.9,5.00,0.00,29.5,27.6,00.0,38.3,31.3,34.2,0000.0,0004.93,0013.33,0004.16
2022-07-08 16:59:00,,0832.9,5.01,0.00,29.5,27.8,00.0,38.3,31.3,34.3,0000.0,0004.96,0013.04,0004.17
